Goodland, KS

8:24 PM MST on December 04, 2016 (GMT -0700)
Renner-Goodland Municipal

Weather History for KGLD - December, 2013

Change the Weather History Date:

Monday, December 16, 2013

  Actual Average Record
Temperature  
Mean Temperature 46 °F 29 °F  
Max Temperature 64 °F 42 °F 74 °F (1962)
Min Temperature 28 °F 17 °F -4 °F (1964)
Degree Days  
Heating Degree Days 19 36  
Month to date heating degree days 629 552  
Since 1 July heating degree days 1902 1871  
Cooling Degree Days 0 0  
Month to date cooling degree days 0 0  
Year to date cooling degree days 1181 941  
Moisture  
Dew Point 15 °F    
Average Humidity 36    
Maximum Humidity 58    
Minimum Humidity 14    
Precipitation  
Precipitation 0.00 in 0.02 in 0.20 in (1915)
Month to date precipitation 0.05 0.25  
Year to date precipitation 16.74 19.45  
Snow  
Snow 0.00 in 0.20 in - ()
Month to date snowfall 2.5 2.8  
Since 1 July snowfall 6.8 10.0  
Snow Depth 0.00 in    
Sea Level Pressure  
Sea Level Pressure 30.15 in    
Wind  
Wind Speed 12 mph (WNW)    
Max Wind Speed 23 mph    
Max Gust Speed 28 mph    
Visibility 10 miles    
Events      
T = Trace of Precipitation, MM = Missing Value Source: NWS Daily Summary

Daily Weather History Graph

Daily Weather History Graph

Search for Another Location

Airport or City:

Trip Planner

Search our weather history database for the weather conditions in past years. The results will help you decide how hot, cold, wet, or windy it might be!

Date:

Astronomy

Dec. 16, 2013 Rise Set
Actual Time 7:00 AM MST 4:24 PM MST
Civil Twilight 6:30 AM MST 4:54 PM MST
Nautical Twilight 5:56 AM MST 5:28 PM MST
Astronomical Twilight 5:23 AM MST 6:01 PM MST
Moon 4:16 PM MST (12/16) 6:10 AM MST (12/16)
Length of Visible Light 10h 24m
Length of Day
9h 24m
Full, 100% of the Moon is Illuminated
Dec 16
Full
Dec 17
Full
Dec 25
Last Quarter
Jan 1
New
Jan 7
First Quarter

Hourly Weather History & Observations

Time (MST) Temp. Windchill Dew Point Humidity Pressure Visibility Wind Dir Wind Speed Gust Speed Precip Events Conditions
12:53 AM 32.0 °F 22.1 °F 16.0 °F 52% 30.07 in 10.0 mi WNW 13.8 mph - N/A   Clear
1:53 AM 30.9 °F 22.2 °F 15.1 °F 52% 30.09 in 10.0 mi West 10.4 mph - N/A   Clear
2:53 AM 28.9 °F 21.1 °F 15.1 °F 56% 30.07 in 10.0 mi West 8.1 mph - N/A   Clear
3:53 AM 30.0 °F 20.0 °F 15.1 °F 54% 30.09 in 10.0 mi West 12.7 mph - N/A   Clear
4:53 AM 32.0 °F 22.5 °F 15.1 °F 50% 30.12 in 10.0 mi West 12.7 mph - N/A   Clear
5:53 AM 30.9 °F 20.7 °F 15.1 °F 52% 30.15 in 10.0 mi West 13.8 mph - N/A   Clear
6:53 AM 32.0 °F 22.1 °F 15.1 °F 50% 30.15 in 10.0 mi West 13.8 mph - N/A   Clear
7:53 AM 39.0 °F 31.4 °F 16.0 °F 39% 30.17 in 10.0 mi West 12.7 mph - N/A   Clear
8:53 AM 48.0 °F - 18.0 °F 30% 30.18 in 10.0 mi West 10.4 mph - N/A   Clear
9:53 AM 54.0 °F - 19.0 °F 25% 30.19 in 10.0 mi NW 16.1 mph - N/A   Clear
10:53 AM 57.9 °F - 19.0 °F 22% 30.15 in 10.0 mi NNW 17.3 mph - N/A   Clear
11:53 AM 59.0 °F - 19.9 °F 22% 30.11 in 10.0 mi NNW 15.0 mph - N/A   Clear
12:53 PM 62.1 °F - 19.0 °F 19% 30.08 in 10.0 mi NNW 17.3 mph - N/A   Clear
1:53 PM 63.0 °F - 17.1 °F 17% 30.06 in 10.0 mi WNW 10.4 mph - N/A   Clear
2:53 PM 63.0 °F - 14.0 °F 15% 30.08 in 10.0 mi NW 20.7 mph - N/A   Clear
3:53 PM 55.9 °F - 15.1 °F 20% 30.12 in 10.0 mi NW 10.4 mph - N/A   Clear
4:53 PM 43.0 °F 39.5 °F 12.9 °F 30% 30.15 in 10.0 mi WNW 5.8 mph - N/A   Clear
5:53 PM 35.1 °F 28.6 °F 12.0 °F 39% 30.21 in 10.0 mi WNW 8.1 mph - N/A   Clear
6:53 PM 35.1 °F 30.1 °F 12.9 °F 40% 30.22 in 10.0 mi West 5.8 mph - N/A   Clear
7:53 PM 36.0 °F 29.0 °F 14.0 °F 41% 30.22 in 10.0 mi West 9.2 mph - N/A   Clear
8:53 PM 34.0 °F 26.0 °F 12.9 °F 42% 30.21 in 10.0 mi West 10.4 mph - N/A   Clear
9:53 PM 36.0 °F 27.1 °F 12.9 °F 39% 30.22 in 10.0 mi West 13.8 mph - N/A   Clear
10:53 PM 37.0 °F 28.5 °F 12.9 °F 37% 30.20 in 10.0 mi West 13.8 mph - N/A   Clear
11:53 PM 35.1 °F 25.9 °F 14.0 °F 42% 30.22 in 10.0 mi NW 13.8 mph - N/A   Clear